Location: Dos Palmas
(32.4468°N, 116.8732°W)
Time: 01:23:08
(UTC+00:00)

GPS 2-04 Rocket1 - Pass Details

Date: 20 June 2021
Orbit: 415 x 539 km, 35.6° (Epoch: 27 July)

Event Time Altitude Azimuth Distance (km) Brightness Sun altitude
Exits shadow 10:05:30 50° 18° (NNE) 654 3.5 -25.3°
Drops below altitude 10° 10:08:59 10° 76° (ENE) 1,693 5.9 -24.9°
Sets 10:11:11 0° 81° (E) 2,552 6.9 -24.6°
